FW1757 Weather Reports


time (UTC)temp
C
wind
direction
speed
KPH
gust
KPH
rain 1hr
cm
rain 24hr
cm
rain mn
cm
humidity
%
barometer
mb
20260508234100 19 276 0.0 0.0 0.00 0.00 0.00 39 1017.6
20260508233559 19 300 0.0 0.0 0.00 0.00 0.00 39 1017.5
20260508233056 19 275 0.0 0.0 0.00 0.00 0.00 38 1017.6
20260508232558 19 309 0.0 0.0 0.00 0.00 0.00 38 1017.7
20260508232058 19 294 0.0 0.0 0.00 0.00 0.00 36 1017.5
20260508231558 20 314 0.0 0.0 0.00 0.00 0.00 36 1017.5
20260508231056 20 311 0.0 0.0 0.00 0.00 0.00 37 1017.4
20260508230559 19 306 0.0 0.0 0.00 0.00 0.00 36 1017.5
20260508230057 19 282 0.0 0.0 0.00 0.00 0.00 37 1017.4
20260508225555 19 311 0.0 0.0 0.00 0.00 0.00 37 1017.5
20260508225056 20 290 0.0 0.0 0.00 0.00 0.00 37 1017.5
20260508224557 19 287 0.0 0.0 0.00 0.00 0.00 39 1017.5
20260508224054 19 309 0.0 0.0 0.00 0.00 0.00 39 1017.5
20260508223553 19 259 0.0 0.0 0.00 0.00 0.00 39 1017.6
20260508223054 20 268 0.0 0.0 0.00 0.00 0.00 38 1017.6
20260508222553 20 278 0.0 0.0 0.00 0.00 0.00 38 1017.7
20260508222051 19 261 0.0 0.0 0.00 0.00 0.00 41 1017.6
20260508221552 19 288 0.0 0.0 0.00 0.00 0.00 40 1017.6
20260508221051 19 277 0.0 0.0 0.00 0.00 0.00 41 1017.8
20260508220550 19 289 0.0 0.0 0.00 0.00 0.00 41 1017.6
20260508220049 18 309 0.0 0.0 0.00 0.00 0.00 42 1017.8
20260508215547 18 301 0.0 0.0 0.00 0.00 0.00 41 1017.7
20260508215047 18 311 0.0 0.0 0.00 0.00 0.00 43 1017.8
20260508214559 18 294 0.0 0.0 0.00 0.00 0.00 44 1017.7
20260508214044 18 300 0.0 0.0 0.00 0.00 0.00 43 1017.9
20260508213544 18 287 0.0 0.0 0.00 0.00 0.00 43 1018.0
20260508213044 18 300 0.0 0.0 0.00 0.00 0.00 42 1018.1
20260508212544 18 262 0.0 0.0 0.00 0.00 0.00 43 1018.2
20260508212044 18 285 0.0 0.0 0.00 0.00 0.00 42 1018.2
20260508211543 18 315 0.0 0.0 0.00 0.00 0.00 42 1018.2
20260508211043 18 317 0.0 0.0 0.00 0.00 0.00 42 1018.2
20260508210543 18 294 0.0 0.0 0.00 0.00 0.00 42 1017.9
20260508210046 18 277 0.0 0.0 0.00 0.00 0.00 43 1018.0
20260508205541 18 301 0.0 0.0 0.00 0.00 0.00 43 1017.9
20260508205043 18 308 0.0 0.0 0.00 0.00 0.00 43 1018.0
20260508204542 18 344 0.0 0.0 0.00 0.00 0.00 46 1018.1
20260508204038 17 313 0.0 0.0 0.00 0.00 0.00 44 1017.8
20260508203538 17 279 0.0 0.0 0.00 0.00 0.00 43 1017.8
20260508203040 17 271 0.0 0.0 0.00 0.00 0.00 45 1017.8
20260508202537 17 199 0.0 0.0 0.00 0.00 0.00 43 1017.9
20260508202036 17 288 0.0 0.0 0.00 0.00 0.00 45 1017.8
20260508201536 17 275 0.0 0.0 0.00 0.00 0.00 44 1017.8
20260508201038 17 263 0.0 0.0 0.00 0.00 0.00 47 1017.9
20260508200535 17 289 0.0 0.0 0.00 0.00 0.00 46 1017.7
20260508200041 17 292 0.0 0.0 0.00 0.00 0.00 46 1017.7
20260508195533 17 286 0.0 0.0 0.00 0.00 0.00 48 1017.6
20260508195032 17 294 0.0 0.0 0.00 0.00 0.00 48 1017.6
20260508194533 16 265 0.0 0.0 0.00 0.00 0.00 49 1017.6
20260508194030 16 250 0.0 0.0 0.00 0.00 0.00 47 1017.6
20260508193530 16 236 0.0 0.0 0.00 0.00 0.00 50 1017.5
20260508193037 16 293 0.0 0.0 0.00 0.00 0.00 51 1017.6
20260508192528 16 211 0.0 0.0 0.00 0.00 0.00 50 1017.6
20260508192029 16 301 0.0 0.0 0.00 0.00 0.00 53 1017.7
20260508191527 15 259 0.0 0.0 0.00 0.00 0.00 51 1017.7
20260508191025 15 277 0.0 0.0 0.00 0.00 0.00 53 1017.7
20260508190527 15 211 0.0 0.0 0.00 0.00 0.00 53 1017.8
20260508190039 15 288 0.0 0.0 0.00 0.00 0.00 53 1017.8
20260508185524 15 277 0.0 0.0 0.00 0.00 0.00 54 1017.7
20260508185021 15 311 0.0 0.0 0.00 0.00 0.00 53 1017.6
20260508184529 15 244 0.0 0.0 0.00 0.00 0.00 53 1017.6
20260508184020 14 236 0.0 0.0 0.00 0.00 0.00 55 1017.6
20260508183516 13 274 0.0 0.0 0.00 0.00 0.00 57 1017.6
20260508183028 13 261 0.0 0.0 0.00 0.00 0.00 57 1017.6
20260508182516 13 270 0.0 0.0 0.00 0.00 0.00 58 1017.5
20260508182014 12 290 0.0 0.0 0.00 0.00 0.00 58 1017.5
20260508181518 12 239 0.0 0.0 0.00 0.00 0.00 59 1017.5
20260508181014 12 246 0.0 0.0 0.00 0.00 0.00 59 1017.4
20260508180514 12 301 0.0 0.0 0.00 0.00 0.00 58 1017.4
20260508180014 12 261 0.0 0.0 0.00 0.00 0.00 58 1017.6
20260508175514 12 249 0.0 0.0 0.00 0.00 0.00 59 1017.5
20260508175014 12 294 0.0 0.0 0.00 0.00 0.00 58 1017.4
20260508174513 12 242 0.0 0.0 0.00 0.00 0.00 59 1017.6
20260508174012 12 279 0.0 0.0 0.00 0.00 0.00 58 1017.3
20260508173511 12 288 0.0 0.0 0.00 0.00 0.00 61 1017.4
20260508173013 12 275 0.0 0.0 0.00 0.00 0.00 61 1017.1
20260508172511 12 344 0.0 0.0 0.00 0.00 0.00 61 1017.1
20260508172011 13 290 0.0 0.0 0.00 0.00 0.00 61 1017.2
20260508171510 13 294 0.0 0.0 0.00 0.00 0.00 61 1017.1
20260508171011 13 297 0.0 0.0 0.00 0.00 0.00 60 1017.2
20260508170510 13 315 0.0 0.0 0.00 0.00 0.00 61 1017.0
20260508170011 13 324 0.0 0.0 0.00 0.00 0.00 58 1016.9
20260508165510 13 275 0.0 0.0 0.00 0.00 0.00 59 1017.0
20260508165012 13 305 0.0 0.0 0.00 0.00 0.00 58 1016.8
20260508164520 13 275 0.0 0.0 0.00 0.00 0.00 59 1016.8
20260508164009 13 275 0.0 0.0 0.00 0.00 0.00 60 1016.8
20260508163508 13 295 0.0 0.0 0.00 0.00 0.00 61 1016.8
20260508163014 13 278 0.0 0.0 0.00 0.00 0.00 61 1017.0
20260508162508 13 285 0.0 0.0 0.00 0.00 0.00 61 1017.0
20260508162008 13 300 0.0 0.0 0.00 0.00 0.00 62 1016.9
20260508161510 13 258 0.0 0.0 0.00 0.00 0.00 63 1017.0
20260508161008 13 321 0.0 0.0 0.00 0.00 0.00 63 1017.0
20260508160509 13 296 0.0 0.0 0.00 0.00 0.00 63 1017.1
20260508160007 13 311 0.0 0.0 0.00 0.00 0.00 64 1016.9
20260508155509 13 307 0.0 0.0 0.00 0.00 0.00 65 1017.1
20260508155008 13 300 0.0 0.0 0.00 0.00 0.00 65 1017.0
20260508154506 13 286 0.0 0.0 0.00 0.00 0.00 65 1016.9
20260508154005 13 325 0.0 0.0 0.00 0.00 0.00 66 1017.0
20260508153505 13 311 0.0 0.0 0.00 0.00 0.00 65 1017.0
20260508153007 13 236 0.0 0.0 0.00 0.00 0.00 66 1016.8
20260508152507 13 277 0.0 0.0 0.00 0.00 0.00 66 1016.8
20260508152006 13 249 0.0 0.0 0.00 0.00 0.00 66 1016.7
20260508151501 13 283 0.0 0.0 0.00 0.00 0.00 66 1016.7
20260508151100 13 273 0.0 0.0 0.00 0.00 0.00 65 1016.5
20260508150559 13 284 0.0 0.0 0.00 0.00 0.00 65 1016.4
20260508150059 12 288 0.0 0.0 0.00 0.00 0.00 64 1016.3
20260508145558 12 296 0.0 0.0 0.00 0.00 0.00 63 1016.2
20260508145058 12 289 0.0 0.0 0.00 0.00 0.00 62 1016.2
20260508144607 12 260 0.0 0.0 0.00 0.00 0.00 61 1016.2
20260508144059 12 274 0.0 0.0 0.00 0.00 0.00 60 1016.0
20260508143557 12 307 0.0 0.0 0.00 0.00 0.00 60 1016.0
20260508143059 12 280 0.0 0.0 0.00 0.00 0.00 61 1016.0
20260508142554 12 288 0.0 0.0 0.00 0.00 0.00 61 1015.7
20260508142055 12 271 0.0 0.0 0.00 0.00 0.00 61 1015.8
20260508141605 12 285 0.0 0.0 0.00 0.00 0.00 61 1015.7
20260508141053 12 294 0.0 0.0 0.00 0.00 0.00 61 1015.7
20260508140553 12 286 0.0 0.0 0.00 0.00 0.00 63 1015.6
20260508140054 12 285 0.0 0.0 0.00 0.00 0.00 65 1015.5
20260508135553 12 302 0.0 0.0 0.00 0.00 0.00 66 1015.5
20260508135052 12 311 0.0 0.0 0.00 0.00 0.00 66 1015.4
20260508134552 12 278 0.0 0.0 0.00 0.00 0.00 67 1015.5
20260508134051 12 265 0.0 0.0 0.00 0.00 0.00 68 1015.3
20260508133550 12 292 0.0 0.0 0.00 0.00 0.00 68 1015.3
20260508133052 11 287 0.0 0.0 0.00 0.00 0.00 68 1015.2
20260508132549 11 254 0.0 0.0 0.00 0.00 0.00 68 1015.1
20260508132049 11 253 0.0 0.0 0.00 0.00 0.00 68 1015.1
20260508131600 11 290 0.0 0.0 0.00 0.00 0.00 68 1015.0
20260508131049 11 281 0.0 0.0 0.00 0.00 0.00 68 1015.0
20260508130552 11 298 0.0 0.0 0.00 0.00 0.00 68 1015.0
20260508130048 11 245 0.0 0.0 0.00 0.00 0.00 68 1015.0
20260508125550 11 236 0.0 0.0 0.00 0.00 0.00 68 1014.9
20260508125047 11 243 0.0 0.0 0.00 0.00 0.00 68 1014.9
20260508124548 11 241 0.0 0.0 0.00 0.00 0.00 68 1014.9
20260508124047 11 289 0.0 0.0 0.00 0.00 0.00 68 1014.9
20260508123546 11 266 0.0 0.0 0.00 0.00 0.00 68 1015.0
20260508123100 11 245 0.0 0.0 0.00 0.00 0.00 68 1014.9
20260508122549 11 283 0.0 0.0 0.00 0.00 0.00 67 1014.9
20260508122047 11 254 0.0 0.0 0.00 0.00 0.00 67 1014.9
20260508121548 11 279 0.0 0.0 0.00 0.00 0.00 67 1014.9
20260508121046 11 279 0.0 0.0 0.00 0.00 0.00 67 1014.9
20260508120545 11 263 0.0 0.0 0.00 0.00 0.00 66 1014.9
20260508120104 11 242 0.0 0.0 0.00 0.00 0.00 66 1015.0
20260508115544 11 298 0.0 0.0 0.00 0.00 0.00 66 1014.8
20260508115044 11 232 0.0 0.0 0.00 0.00 0.00 65 1014.8
20260508114555 11 225 0.0 0.0 0.00 0.00 0.00 65 1014.9
20260508114043 11 203 0.0 0.0 0.00 0.00 0.00 65 1015.0
20260508113543 11 206 0.0 0.0 0.00 0.00 0.00 64 1014.9
20260508113043 11 201 0.0 0.0 0.00 0.00 0.00 64 1014.8
20260508112542 11 218 0.0 0.0 0.00 0.00 0.00 64 1014.7
20260508112042 11 246 0.0 0.0 0.00 0.00 0.00 64 1014.7
20260508111545 11 225 0.0 0.0 0.00 0.00 0.00 64 1014.6
20260508111042 11 244 0.0 0.0 0.00 0.00 0.00 64 1014.5
20260508110542 11 239 0.0 0.0 0.00 0.00 0.00 63 1014.5
20260508110041 11 267 0.0 0.0 0.00 0.00 0.00 63 1014.6
20260508105541 11 267 0.0 0.0 0.00 0.00 0.00 63 1014.5
20260508105042 11 267 0.0 0.0 0.00 0.00 0.00 63 1014.6
20260508104545 11 263 0.0 0.0 0.00 0.00 0.00 63 1014.5
20260508104041 11 283 0.0 0.0 0.00 0.00 0.00 63 1014.5
20260508103541 11 289 0.0 0.0 0.00 0.00 0.00 63 1014.5
20260508103055 11 289 0.0 0.0 0.00 0.00 0.00 63 1014.6
20260508102540 11 287 0.0 0.0 0.00 0.00 0.00 63 1014.6
20260508102040 11 277 0.0 0.0 0.00 0.00 0.00 62 1014.6
20260508101550 11 277 0.0 0.0 0.00 0.00 0.00 63 1014.6
20260508101040 11 288 0.0 0.0 0.00 0.00 0.00 62 1014.6
20260508100538 11 259 0.0 0.0 0.00 0.00 0.00 61 1014.7
20260508100038 11 259 0.0 0.0 0.00 0.00 0.00 61 1014.6
20260508095541 11 259 0.0 0.0 0.00 0.00 0.00 61 1014.7
20260508095038 11 259 0.0 0.0 0.00 0.00 0.00 61 1014.7
20260508094537 11 259 0.0 0.0 0.00 0.00 0.00 60 1014.7
20260508094035 11 256 0.0 0.0 0.00 0.00 0.00 60 1014.6
20260508093538 11 256 0.0 0.0 0.00 0.00 0.00 59 1014.6
20260508093039 11 236 0.0 0.0 0.00 0.00 0.00 59 1014.5
20260508092535 12 236 0.0 0.0 0.00 0.00 0.00 59 1014.4
20260508092033 12 232 0.0 0.0 0.00 0.00 0.00 59 1014.4
20260508091535 12 232 0.0 0.0 0.00 0.00 0.00 58 1014.5
20260508091033 12 232 0.0 0.0 0.00 0.00 0.00 58 1014.5
20260508090533 12 250 0.0 0.0 0.00 0.00 0.00 58 1014.5
20260508090033 12 268 0.0 0.0 0.00 0.00 0.00 57 1014.5
20260508085532 12 246 0.0 0.0 0.00 0.00 0.00 57 1014.4
20260508085031 12 249 0.0 0.0 0.00 0.00 0.00 57 1014.4
20260508084531 12 230 0.0 0.0 0.00 0.00 0.00 57 1014.4
20260508084031 12 223 0.0 0.0 0.00 0.00 0.00 57 1014.4
20260508083531 12 250 0.0 0.0 0.00 0.00 0.00 57 1014.4
20260508083033 12 242 0.0 0.0 0.00 0.00 0.00 56 1014.3
20260508082530 12 244 0.0 0.0 0.00 0.00 0.00 56 1014.4
20260508082029 12 227 0.0 0.0 0.00 0.00 0.00 56 1014.4
20260508081529 12 262 0.0 0.0 0.00 0.00 0.00 56 1014.3
20260508081028 12 263 0.0 0.0 0.00 0.00 0.00 56 1014.2
20260508080528 12 263 0.0 0.0 0.00 0.00 0.00 57 1014.2
20260508080028 12 263 0.0 0.0 0.00 0.00 0.00 56 1014.3
20260508075528 12 232 0.0 0.0 0.00 0.00 0.00 57 1014.2
20260508075031 12 232 0.0 0.0 0.00 0.00 0.00 57 1014.1
20260508074528 12 231 0.0 0.0 0.00 0.00 0.00 57 1014.2
20260508074027 12 239 0.0 0.0 0.00 0.00 0.00 57 1014.1
20260508073527 12 257 0.0 0.0 0.00 0.00 0.00 57 1014.2
20260508073036 12 259 0.0 0.0 0.00 0.00 0.00 57 1014.1
20260508072529 12 253 0.0 0.0 0.00 0.00 0.00 57 1014.2
20260508072026 12 254 0.0 0.0 0.00 0.00 0.00 58 1014.2
20260508071526 12 254 0.0 0.0 0.00 0.00 0.00 58 1014.1
20260508071025 12 254 0.0 0.0 0.00 0.00 0.00 56 1014.1
20260508070524 12 254 0.0 0.0 0.00 0.00 0.00 56 1014.1
20260508070024 12 254 0.0 0.0 0.00 0.00 0.00 56 1014.1
20260508065523 12 254 0.0 0.0 0.00 0.00 0.00 54 1014.1
20260508065026 13 254 0.0 0.0 0.00 0.00 0.00 54 1014.0
20260508064527 13 254 0.0 0.0 0.00 0.00 0.00 53 1014.1
20260508064022 13 254 0.0 0.0 0.00 0.00 0.00 52 1014.0
20260508063522 13 254 0.0 0.0 0.00 0.00 0.00 52 1014.0
20260508063021 13 254 0.0 0.0 0.00 0.00 0.00 50 1014.0
20260508062526 14 254 0.0 0.0 0.00 0.00 0.00 51 1014.0
20260508062021 14 254 0.0 0.0 0.00 0.00 0.00 49 1013.9
20260508061521 15 254 0.0 0.0 0.00 0.00 0.00 48 1014.0
20260508061023 15 254 0.0 0.0 0.00 0.00 0.00 47 1014.0
20260508060521 15 254 0.0 0.0 0.00 0.00 0.00 47 1014.1
20260508060020 15 257 0.0 0.0 0.00 0.00 0.00 46 1014.1
20260508055521 15 269 0.0 0.0 0.00 0.00 0.00 46 1014.0
20260508055020 15 258 0.0 0.0 0.00 0.00 0.00 45 1014.0
20260508054520 15 290 0.0 0.0 0.00 0.00 0.00 45 1014.0
20260508054019 15 253 0.0 0.0 0.00 0.00 0.00 45 1014.0
20260508053519 15 302 0.0 0.0 0.00 0.00 0.00 45 1014.0
20260508053020 15 294 0.0 0.0 0.00 0.00 0.00 45 1013.9
20260508052523 15 296 0.0 0.0 0.00 0.00 0.00 45 1013.9
20260508052019 16 252 0.0 0.0 0.00 0.00 0.00 45 1013.9
20260508051519 16 262 0.0 0.0 0.00 0.00 0.00 44 1013.9
20260508051119 16 269 0.0 0.0 0.00 0.00 0.00 44 1013.9
20260508050519 16 246 0.0 0.0 0.00 0.00 0.00 44 1013.8
20260508050033 16 288 0.0 0.0 0.00 0.00 0.00 44 1013.9
20260508045619 16 277 0.0 0.0 0.00 0.00 0.00 43 1013.7
20260508045018 16 296 0.0 0.0 0.00 0.00 0.00 43 1013.6
20260508044518 16 310 0.0 0.0 0.00 0.00 0.00 42 1013.7
20260508044018 16 242 0.0 0.0 0.00 0.00 0.00 42 1013.5
20260508043517 16 205 0.0 0.0 0.00 0.00 0.00 42 1013.5
20260508043017 16 289 0.0 0.0 0.00 0.00 0.00 41 1013.5
20260508042517 17 199 0.0 0.0 0.00 0.00 0.00 41 1013.4
20260508042022 17 277 0.0 0.0 0.00 0.00 0.00 40 1013.5
20260508041517 17 300 0.0 0.0 0.00 0.00 0.00 39 1013.5
20260508041017 17 226 0.0 0.0 0.00 0.00 0.00 38 1013.5
20260508040518 17 278 0.0 0.0 0.00 0.00 0.00 38 1013.4
20260508040016 17 230 0.0 0.0 0.00 0.00 0.00 37 1013.3
20260508035516 17 302 0.0 0.0 0.00 0.00 0.00 36 1013.4
20260508035016 17 327 0.0 0.0 0.00 0.00 0.00 36 1013.4
20260508034519 17 295 0.0 0.0 0.00 0.00 0.00 35 1013.3
20260508034016 17 293 0.0 0.0 0.00 0.00 0.00 33 1013.2
20260508033515 17 297 0.0 0.0 0.00 0.00 0.00 33 1013.2
20260508033015 17 283 0.0 0.0 0.00 0.00 0.00 32 1013.2
20260508032515 18 265 0.0 0.0 0.00 0.00 0.00 31 1013.1
20260508032016 18 288 0.0 0.0 0.00 0.00 0.00 30 1013.0
20260508031515 18 257 0.0 0.0 0.00 0.00 0.00 29 1013.1
20260508031015 18 292 0.0 0.0 0.00 0.00 0.00 29 1013.0
20260508030515 18 256 0.0 0.0 0.00 0.00 0.00 28 1013.1
20260508030015 18 242 0.0 0.0 0.00 0.00 0.00 27 1013.0
20260508025615 18 298 0.0 0.0 0.00 0.00 0.00 25 1013.0
20260508025115 18 278 0.0 0.0 0.00 0.00 0.00 25 1013.0
20260508024513 19 280 0.0 0.0 0.00 0.00 0.00 23 1012.9
20260508024013 19 290 0.0 0.0 0.00 0.00 0.00 23 1013.0
20260508023513 19 251 0.0 0.0 0.00 0.00 0.00 23 1012.9
20260508023013 19 313 0.0 0.0 0.00 0.00 0.00 23 1012.9
20260508022512 20 261 0.0 0.0 0.00 0.00 0.00 24 1012.7
20260508022012 20 277 0.0 0.0 0.00 0.00 0.00 23 1012.7
20260508021512 20 306 0.0 0.0 0.00 0.00 0.00 24 1012.7
20260508021013 20 245 0.0 0.0 0.00 0.00 0.00 24 1012.7
20260508020511 20 230 0.0 0.0 0.00 0.00 0.00 23 1012.7
20260508020012 20 273 0.0 0.0 0.00 0.00 0.00 23 1012.7
20260508015512 20 300 0.0 0.0 0.00 0.00 0.00 23 1012.9
20260508015010 20 283 0.0 0.0 0.00 0.00 0.00 22 1012.9
20260508014512 21 288 0.0 0.0 0.00 0.00 0.00 22 1012.7
20260508014008 21 257 0.0 0.0 0.00 0.00 0.00 22 1012.9
20260508013508 21 262 0.0 0.0 0.00 0.00 0.00 22 1012.8
20260508013010 21 268 0.0 0.0 0.00 0.00 0.00 22 1013.0
20260508012512 21 290 0.0 0.0 0.00 0.00 0.00 22 1013.0
20260508012007 21 291 0.0 0.0 0.00 0.00 0.00 21 1013.1
20260508011506 21 275 0.0 0.0 0.00 0.00 0.00 24 1013.2
20260508011006 21 240 0.0 0.0 0.00 0.00 0.00 25 1013.3
20260508010506 21 273 0.0 0.0 0.00 0.00 0.00 23 1013.4
20260508010006 21 306 0.0 0.0 0.00 0.00 0.00 24 1013.3
20260508005507 21 290 0.0 0.0 0.00 0.00 0.00 22 1013.3
20260508005007 21 274 0.0 0.0 0.00 0.00 0.00 23 1013.4
20260508004509 21 298 0.0 0.0 0.00 0.00 0.00 23 1013.4
20260508004005 21 292 0.0 0.0 0.00 0.00 0.00 22 1013.4
20260508003504 21 276 0.0 0.0 0.00 0.00 0.00 22 1013.5
20260508003006 21 300 0.0 0.0 0.00 0.00 0.00 24 1013.4
20260508002504 21 290 0.0 0.0 0.00 0.00 0.00 23 1013.5
20260508002004 21 249 0.0 0.0 0.00 0.00 0.00 22 1013.5
20260508001508 21 250 0.0 0.0 0.00 0.00 0.00 21 1013.5
20260508001004 21 265 0.0 0.0 0.00 0.00 0.00 21 1013.4
20260508000507 21 270 0.0 0.0 0.00 0.00 0.00 20 1013.4
20260508000003 21 295 0.0 0.0 0.00 0.00 0.00 19 1013.4
20260507235504 21 261 0.0 0.0 0.00 0.00 0.00 18 1013.4
20260507235005 22 301 0.0 0.0 0.00 0.00 0.00 20 1013.3
20260507234502 22 303 0.0 0.0 0.00 0.00 0.00 18 1013.4